Location: Seattle
(47.6064°N, 122.3308°W)
Time: 15:03:41
(UTC-08:00)

S-56A Canister/Altair - Pass Details

Date: 10 October 2022
Orbit: 638 x 2494 km, 38.9° (Epoch: 03 December)

Event Time Altitude Azimuth Distance (km) Brightness Sun altitude
Exits shadow 06:41:13 - 259° (WSW) 3,803 10.4 -7.5°
Reaches altitude 10° 06:43:10 10° 248° (WSW) 3,410 10.3 -7.2°
Maximum altitude 06:45:41 12° 230° (SW) 3,072 10.2 -6.8°
Drops below altitude 10° 06:47:57 10° 212° (SSW) 2,997 10.3 -6.4°
Sets 06:52:32 0° 180° (S) 3,562 11.0 -5.6°
